Flag for Canada Weather past 2 weeks in Brandon, Manitoba, Canada

Now
-2 °F

Clear.


Feels Like: -19 °F
Forecast: -4 / 24 °F
Wind: 10 mph from Northwest

Location: Brandon

Current Time: Mar 1, 2015 at 11:10:49 PM

Latest Report: Mar 1, 2015 at 10:00 PM


Visibility: 15 mi

Pressure: 30.41 "Hg

Humidity: 84%

Dew point: -6 °F

Location of BrandonLocation

Historic Weather in Brandon — Graph

°F

Brandon temperature yesterday

Maximum temperature yesterday: 10 °F (at 1:00 PM)
Minimum temperature yesterday: -9 °F (at 12:00 AM)
Average temperature yesterday: 2 °F

Past Weeks' High & Low Weather Summary

 TemperatureHumidityPressure
High30 °F (Feb 23, 10:00 PM)93% (Feb 20, 2:00 AM)30.88 "Hg (Feb 20, 2:00 AM)
Low-33 °F (Feb 22, 5:00 AM)52% (Feb 24, 2:00 PM)29.76 "Hg (Feb 20, 2:00 AM)
Average-3 °F73%30.32 "Hg
* Reported Feb 14 10:00 PM — Mar 1 10:00 PM, Brandon, Weather by CustomWeather, © 2015

Note: Actual official high and low records may vary slightly from our data, if they occured in-between our weather recording intervals... More about our weather records

Advertising

Brandon weather history for previous 24 hours

 ConditionsComfort  
Time TempWeatherWind HumidityBarometerVisibility
10:00 PM
Sun, Mar 1
-2 °FClear.10 mph84%30.41 "Hg15 mi
9:00 PM0 °FClear.9 mph84%30.38 "Hg15 mi
8:00 PM5 °FPassing clouds.13 mph78%30.38 "Hg15 mi
7:00 PM7 °FPassing clouds.13 mph78%30.37 "Hg15 mi
6:00 PM14 °FPassing clouds.14 mph67%30.35 "Hg15 mi
5:00 PM16 °FScattered clouds.14 mph73%30.34 "Hg15 mi
4:00 PM18 °FPassing clouds.13 mph68%30.33 "Hg15 mi
3:00 PM18 °FPassing clouds.12 mph68%30.32 "Hg15 mi
2:00 PM16 °FPassing clouds.17 mph73%30.34 "Hg15 mi
1:00 PM12 °FScattered clouds.14 mph73%30.34 "Hg15 mi
12:00 PM10 °FPassing clouds.14 mph72%30.34 "Hg15 mi
11:00 AM9 °FScattered clouds.13 mph72%30.32 "Hg15 mi
10:00 AM7 °FPartly sunny.10 mph78%30.30 "Hg15 mi
9:00 AM5 °FPartly sunny.12 mph78%30.27 "Hg15 mi
8:00 AM1 °FPartly sunny.8 mph85%30.24 "Hg15 mi
7:00 AM-4 °FSnow flurries. Passing clouds.13 mph84%30.22 "Hg15 mi
6:00 AM-4 °FLight snow. Passing clouds.10 mph84%30.21 "Hg15 mi
5:00 AM0 °FLight snow. Passing clouds.13 mph78%30.18 "Hg15 mi
4:00 AM0 °FPassing clouds.13 mph84%30.17 "Hg15 mi
3:00 AM0 °FPassing clouds.12 mph84%30.18 "Hg15 mi
2:00 AM-2 °FPassing clouds.9 mph77%30.19 "Hg15 mi
1:00 AM-4 °FClear.13 mph84%30.19 "Hg15 mi
12:00 AM-2 °FClear.13 mph84%30.18 "Hg15 mi
11:00 PM
Sat, Feb 28
-2 °FClear.13 mph84%30.20 "Hg15 mi
Weather by CustomWeather, © 2015

See weather overviewHow to use our weather pages